TimeMST,TemperatureF,Dew PointF,Humidity,Sea Level PressureIn,VisibilityMPH,Wind Direction,Wind SpeedMPH,Gust SpeedMPH,PrecipitationIn,Events,Conditions,WindDirDegrees,DateUTC
12:56 AM,28.9,23.0,78,29.92,10.0,NW,11.5,-,N/A,,Overcast,320,2013-02-26 07:56:00
1:56 AM,28.0,24.1,85,29.95,10.0,North,13.8,-,N/A,,Overcast,350,2013-02-26 08:56:00
2:56 AM,25.0,21.0,85,29.98,8.0,NNW,15.0,-,N/A,,Overcast,340,2013-02-26 09:56:00
3:56 AM,21.0,18.0,88,30.01,8.0,NNW,12.7,-,N/A,,Clear,330,2013-02-26 10:56:00
4:56 AM,21.9,19.0,89,30.04,10.0,NNW,17.3,-,N/A,,Mostly Cloudy,330,2013-02-26 11:56:00
5:56 AM,23.0,19.0,85,30.07,10.0,NNW,18.4,-,N/A,,Overcast,330,2013-02-26 12:56:00
6:56 AM,23.0,19.0,85,30.11,10.0,NNW,16.1,-,N/A,,Overcast,330,2013-02-26 13:56:00
7:56 AM,23.0,19.0,85,30.14,10.0,NW,13.8,-,N/A,,Overcast,320,2013-02-26 14:56:00
8:56 AM,24.1,19.0,81,30.16,10.0,NNW,13.8,-,N/A,,Overcast,330,2013-02-26 15:56:00
9:56 AM,27.0,19.0,72,30.17,10.0,NNW,17.3,-,N/A,,Overcast,340,2013-02-26 16:56:00
10:56 AM,28.0,19.0,69,30.19,10.0,NNW,15.0,-,N/A,,Overcast,340,2013-02-26 17:56:00
11:56 AM,28.0,19.0,69,30.20,10.0,NNW,16.1,-,N/A,,Overcast,340,2013-02-26 18:56:00
12:56 PM,30.9,19.9,64,30.19,10.0,North,10.4,-,N/A,,Overcast,350,2013-02-26 19:56:00
1:56 PM,33.1,19.0,56,30.17,10.0,Variable,3.5,-,N/A,,Mostly Cloudy,0,2013-02-26 20:56:00
2:56 PM,36.0,19.0,50,30.17,10.0,NNE,4.6,-,N/A,,Overcast,20,2013-02-26 21:56:00
3:56 PM,35.1,23.0,61,30.20,10.0,South,4.6,-,N/A,,Overcast,180,2013-02-26 22:56:00
4:56 PM,33.1,21.9,64,30.20,10.0,South,4.6,-,N/A,,Overcast,170,2013-02-26 23:56:00
5:56 PM,30.9,19.9,64,30.22,10.0,Variable,5.8,-,N/A,,Partly Cloudy,0,2013-02-27 00:56:00
6:56 PM,27.0,17.1,66,30.23,10.0,WSW,11.5,-,N/A,,Clear,250,2013-02-27 01:56:00
7:56 PM,27.0,16.0,63,30.23,10.0,West,13.8,-,N/A,,Clear,260,2013-02-27 02:56:00
8:56 PM,26.1,16.0,66,30.23,10.0,WSW,11.5,-,N/A,,Clear,250,2013-02-27 03:56:00
9:56 PM,25.0,15.1,66,30.23,10.0,SW,9.2,-,N/A,,Clear,220,2013-02-27 04:56:00
10:56 PM,25.0,15.1,66,30.23,10.0,SSW,3.5,-,N/A,,Clear,200,2013-02-27 05:56:00
11:56 PM,21.0,14.0,74,30.24,10.0,Calm,Calm,-,N/A,,Clear,0,2013-02-27 06:56:00